CAPE
nan 0 nan nan nan nan nan nan nan nan nan 0 0 0 0 0 0 0 0 nan nan nan nan 0 0 0 nan nan nan nan nan nan nan nan nan nan nan nan nan nan nan nan nan nan nan nan nan nan nan nan nan nan nan nan nan nan nan nan nan nan nan nan nan nan nan nan nan nan nan nan nan nan nan nan nan nan nan nan nan nan nan nan 0 5 5 17
nan nan nan nan nan nan nan nan nan nan nan nan 0 0 0 0 0 0 1 0 0 0 nan 0 0 1 1 nan nan nan nan nan nan nan nan nan nan nan nan nan nan nan nan nan nan nan nan nan nan nan nan nan nan nan nan nan nan nan nan nan nan nan nan nan nan nan nan nan nan nan nan nan nan nan nan nan nan nan nan nan nan 0 3 10 10 20
nan nan 0 nan nan nan nan nan nan nan nan nan 0 0 0 0 0 0 1 1 1 0 nan 0 0 0 1 0 nan nan nan nan nan nan nan nan nan nan nan nan nan nan nan nan nan nan nan nan nan nan nan nan nan nan nan nan nan nan nan nan nan nan nan nan nan nan nan nan nan nan nan nan nan nan nan nan nan nan 0 1 1 3 8 15 15 23
nan nan 0 0 0 nan nan nan nan nan nan 0 0 0 0 0 0 0 0 0 0 1 0 nan nan 0 1 1 nan nan nan nan nan nan nan nan nan nan nan nan nan nan nan nan nan nan nan nan nan nan nan nan nan nan nan nan nan nan nan nan nan nan nan nan nan nan nan nan nan nan nan nan nan nan nan nan 0 0 3 4 4 7 12 18 18 24
nan nan nan 0 0 0 0 0 nan nan 0 0 0 0 0 0 0 0 0 1 1 0 0 0 0 0 0 1 nan nan nan nan nan nan nan nan nan nan nan nan nan nan nan nan nan nan nan nan nan nan nan nan nan nan nan nan nan nan nan nan nan nan nan nan nan nan nan nan nan nan nan nan nan nan nan nan 1 1 6 8 8 12 18 22 22 25
0 0 0 0 0 0 1 1 0 0 1 0 0 0 nan nan nan nan 0 nan nan 0 0 0 0 0 0 0 1 1 nan nan nan nan nan nan nan nan nan nan nan nan nan nan nan nan nan nan nan nan nan nan nan nan nan nan nan nan nan nan nan nan nan nan nan nan nan nan nan nan nan nan nan nan nan nan 2 2 7 10 10 14 21 27 27 30
nan 0 0 0 0 0 1 0 0 0 0 0 0 0 nan 0 0 0 nan nan nan nan 0 0 0 nan 0 0 1 1 0 nan nan nan nan nan nan nan nan nan nan nan nan nan nan nan nan nan nan nan nan nan nan nan nan nan nan nan nan nan nan nan nan nan nan nan nan nan nan nan nan nan nan nan nan nan 2 2 6 10 10 13 18 27 27 32
nan nan 0 nan nan nan 0 1 1 1 0 nan nan nan 0 nan 0 0 0 nan nan nan nan nan nan nan nan nan 0 0 0 0 0 0 1 1 1 1 0 nan nan nan nan nan nan nan nan nan nan nan nan nan nan nan nan nan nan nan nan nan nan nan nan nan nan nan nan nan nan nan nan nan nan nan nan nan nan nan 2 8 8 11 14 17 17 23
nan nan nan 0 0 nan nan 0 0 0 1 nan nan nan 0 0 0 0 nan nan nan nan nan nan nan nan 0 0 0 0 0 2 1 1 1 1 1 1 2 1 1 2 1 0 0 0 0 0 0 nan nan nan nan nan nan nan nan nan nan nan nan nan nan nan nan nan nan nan nan nan nan 0 0 0 1 1 3 3 4 7 7 13 18 22 22 26
0 0 0 0 0 0 0 nan 0 0 1 0 nan nan 0 0 0 0 nan 0 0 0 0 nan nan nan nan nan 0 0 0 2 5 5 6 nan 5 5 1 1 1 3 2 3 3 2 2 2 2 1 0 0 0 0 0 nan nan nan nan nan nan nan nan nan nan nan nan nan nan nan 0 0 1 1 1 2 2 2 2 4 4 13 20 24 24 25
0 0 0 0 0 0 0 0 0 0 0 nan nan nan nan 0 0 0 nan 0 0 0 0 0 0 nan 0 0 1 1 0 0 0 0 3 1 2 2 1 1 1 2 3 4 4 4 5 4 4 3 3 3 2 2 1 0 0 0 0 nan nan nan nan nan nan nan 0 0 1 1 1 2 3 3 4 4 4 4 2 2 2 3 6 17 17 19
0 0 0 1 1 0 0 nan 0 0 0 nan nan nan 0 nan 1 1 nan 0 0 0 0 0 0 0 0 0 1 1 1 0 nan nan 0 1 1 1 1 1 1 2 3 5 5 6 7 6 6 5 5 3 3 3 2 2 2 2 2 2 2 3 3 4 4 3 4 5 5 5 6 6 7 7 6 6 4 4 3 3 3 2 3 4 4 10
0 0 0 0 0 0 0 nan 0 0 0 nan 0 0 nan nan nan nan 0 0 0 0 0 0 0 1 1 0 1 1 1 1 1 1 0 0 0 0 0 1 1 nan 1 2 2 3 7 7 7 6 5 5 5 5 4 4 4 4 6 7 7 7 8 8 8 9 10 10 9 9 8 7 5 5 4 4 3 3 3 2 2 3 3 4 4 5
nan 0 0 0 0 1 0 0 0 0 0 0 0 0 0 0 nan nan 0 0 0 0 1 1 1 1 1 1 1 1 1 1 1 1 0 0 0 0 1 0 0 0 0 0 0 0 4 3 3 3 4 4 3 3 4 4 4 4 6 7 7 7 8 8 8 8 8 7 6 6 5 4 3 3 3 3 3 3 2 3 3 3 3 3 3 3
nan 0 nan 1 1 1 1 1 1 1 1 1 0 0 0 0 0 0 0 0 0 0 0 0 0 0 0 1 1 1 1 2 0 0 0 0 1 1 1 1 1 1 0 0 0 0 3 2 2 2 2 3 3 3 3 3 3 3 3 3 3 3 3 3 3 4 4 4 4 4 4 3 4 4 3 3 3 3 3 3 3 3 2 2 2 1
0 0 nan 0 0 1 1 2 1 1 1 1 1 1 0 0 0 0 0 0 0 0 0 0 0 0 0 2 1 1 1 1 1 1 1 1 1 1 2 1 1 1 1 0 0 0 1 1 1 2 2 4 3 3 2 5 5 4 3 3 3 3 3 3 3 4 4 5 4 4 5 5 6 6 6 6 5 5 4 3 3 2 1 1 1 1
1 1 0 0 0 1 2 2 2 2 2 1 1 1 0 1 1 1 0 0 0 0 nan nan nan nan 0 1 1 1 1 1 1 1 1 1 1 1 2 3 3 1 1 0 0 0 1 3 3 3 6 7 4 4 3 4 4 5 5 6 6 5 5 5 5 5 6 6 7 7 8 9 8 8 8 7 6 6 4 3 3 3 2 3 3 3
1 2 2 2 2 2 2 1 1 1 2 1 1 1 1 2 2 2 0 nan nan 0 0 nan nan 0 0 1 1 1 2 2 2 2 1 1 2 2 4 3 3 2 1 1 1 1 1 3 3 6 9 9 7 7 6 7 7 7 7 6 6 6 7 6 6 8 8 8 10 10 9 10 10 10 10 9 8 8 7 6 6 6 6 6 6 8
2 3 3 3 3 2 3 3 2 2 1 1 1 1 1 2 2 2 1 0 0 0 0 0 0 0 0 0 1 1 1 2 1 1 1 1 1 1 3 4 4 2 1 1 1 1 1 1 1 10 12 9 9 9 8 9 9 9 9 8 8 8 8 10 10 9 10 11 11 11 11 11 12 12 12 11 10 10 10 11 11 11 13 13 13 13
2 2 2 1 1 1 2 3 3 3 3 5 4 4 2 1 1 1 1 2 2 2 1 0 0 0 0 1 1 1 1 1 1 1 1 1 2 2 2 4 4 2 1 1 1 1 1 0 0 4 10 9 11 11 11 11 11 11 11 11 11 11 10 12 12 13 13 12 13 13 12 13 12 12 14 13 14 14 13 13 13 14 15 14 14 15
0 1 1 0 0 0 1 2 3 3 4 6 5 5 4 2 2 2 2 2 2 2 2 1 1 1 1 1 1 1 2 2 0 0 1 2 2 2 2 3 3 1 1 1 1 1 1 0 0 0 11 12 11 11 12 12 12 13 12 12 12 12 13 13 13 13 13 14 13 13 13 13 13 13 13 13 13 13 13 14 14 15 14 15 15 16
0 0 0 1 1 nan nan 1 3 3 3 5 2 2 2 2 2 2 1 1 1 1 0 0 0 1 1 1 1 1 nan 1 0 0 0 1 2 2 2 3 3 1 1 1 1 0 0 0 0 1 13 15 14 14 13 12 12 12 13 12 12 12 11 11 11 13 14 14 15 15 15 15 13 13 13 13 13 13 12 13 13 13 13 13 13 14
0 0 1 1 1 0 0 1 3 3 3 4 1 1 1 1 1 1 1 1 1 nan nan 0 0 1 0 0 0 0 nan nan nan nan 0 0 1 1 1 1 1 0 1 1 1 1 1 1 1 1 12 13 14 14 13 12 12 12 13 12 12 12 12 12 12 13 14 15 15 15 14 15 13 13 15 13 14 14 13 13 13 12 12 11 11 12
1 1 2 2 2 2 2 2 3 3 4 3 2 2 4 2 2 2 2 0 0 nan nan 0 0 0 0 1 0 0 nan nan nan nan nan 0 1 1 0 0 0 1 1 2 2 2 2 2 2 2 4 9 12 12 9 9 9 12 12 12 12 12 12 13 13 13 13 15 15 15 15 16 14 14 15 13 12 12 13 11 11 11 11 10 10 12
1 1 1 2 2 2 2 3 3 3 2 2 2 2 2 1 0 0 nan nan nan nan 0 0 0 0 0 2 0 0 nan nan nan nan nan nan 1 1 0 0 0 1 1 1 1 2 1 2 2 4 4 4 7 7 8 8 8 8 9 11 11 12 12 13 13 13 13 15 15 15 13 15 14 14 12 12 10 10 11 12 12 10 11 12 12 12
1 1 1 2 2 2 1 1 1 1 1 1 1 1 0 nan nan nan nan 0 0 0 0 0 0 0 0 1 0 0 nan nan nan nan nan nan 0 0 0 0 0 0 0 0 0 1 2 1 1 2 2 2 5 5 3 4 4 5 6 8 8 10 12 12 12 14 13 13 14 14 13 13 12 12 11 12 10 10 10 12 12 11 11 12 12 13
2 3 3 3 3 3 3 2 2 2 1 nan nan nan nan 0 0 0 0 0 0 1 0 0 0 0 0 0 0 0 0 nan nan nan nan nan nan nan 0 nan nan nan 0 0 0 1 2 0 0 0 0 nan 1 1 3 3 3 2 2 6 6 8 10 11 11 12 11 12 11 11 11 12 13 13 12 10 10 10 12 13 13 13 13 13 13 13
6 6 6 5 5 6 6 5 4 4 2 0 nan nan nan nan 0 0 0 1 1 1 1 0 0 0 0 0 0 0 0 nan nan nan nan nan nan nan 0 nan nan nan 0 1 1 3 3 0 0 nan nan nan nan nan 0 1 1 2 2 3 3 7 10 10 10 11 12 13 11 11 11 12 11 11 11 10 11 11 12 13 13 12 13 10 10 10
2 4 7 8 8 9 8 7 7 7 4 2 0 0 nan nan 0 0 1 1 1 1 1 0 0 0 0 0 nan nan nan nan nan nan nan nan nan nan 0 0 0 nan 0 1 1 1 nan nan nan nan nan nan nan nan nan nan nan 0 2 3 3 7 10 10 10 11 12 12 10 10 10 9 9 9 9 8 10 10 10 10 10 12 9 8 8 5
nan nan 1 1 1 6 9 8 10 10 9 5 2 2 nan 0 0 0 nan 0 0 1 1 nan nan nan nan nan nan nan nan nan nan nan nan nan nan nan 0 0 0 nan 0 nan nan nan nan nan nan nan nan nan nan nan nan nan nan nan 3 7 7 8 9 12 12 10 10 9 7 7 6 5 5 5 5 5 6 6 5 5 5 6 4 3 3 1
nan nan nan nan nan nan 1 2 4 4 6 3 1 1 nan 0 0 0 nan nan nan 1 0 nan nan nan nan nan 0 0 0 nan nan nan nan nan nan nan 0 0 0 0 nan nan nan nan nan nan nan 0 nan nan nan nan nan nan nan nan nan 5 5 12 6 3 3 5 5 3 3 3 2 2 1 1 1 1 0 0 1 2 2 3 3 2 2 0
nan nan nan nan nan nan nan nan nan nan nan nan nan nan nan nan nan nan nan nan nan nan nan nan nan nan nan nan nan nan nan nan nan nan nan nan 0 0 0 nan nan nan nan nan nan nan nan nan nan 1 0 nan nan nan nan nan nan nan nan 0 0 0 nan 0 0 0 0 0 nan nan nan nan nan nan nan nan nan nan nan nan nan nan 1 1 1 0
nan nan nan nan nan nan nan nan nan nan nan nan nan nan nan nan nan nan nan nan nan nan nan nan nan nan nan nan nan nan nan nan nan nan nan nan nan nan 0 nan nan nan nan nan nan nan nan 0 0 1 0 nan nan nan nan nan nan nan nan nan nan nan nan 0 0 0 nan nan nan nan nan nan nan nan nan nan nan nan nan nan nan nan 1 1 1 1
nan nan nan nan nan nan nan nan nan nan nan nan nan nan nan nan nan nan nan nan nan nan nan nan nan nan nan nan nan nan nan 0 0 0 nan nan nan nan 0 nan nan nan nan nan nan nan nan nan nan nan nan nan nan nan nan nan nan nan nan nan nan nan nan nan nan nan nan nan nan nan nan nan nan nan nan nan nan nan nan nan nan nan nan 0 0 0
nan nan nan nan nan nan nan nan nan nan nan nan nan nan nan nan nan nan nan nan nan nan nan nan nan nan nan nan nan nan nan nan 0 0 nan nan nan nan nan 0 0 nan nan nan nan nan nan nan nan nan nan nan 0 0 nan nan nan nan nan nan nan nan nan nan nan nan nan nan nan nan nan nan nan nan nan nan nan nan nan nan nan nan nan nan nan nan
nan nan nan nan nan nan nan nan nan nan nan nan nan nan nan nan nan nan nan nan nan nan nan nan nan nan nan nan nan nan nan nan 0 0 nan nan nan nan nan nan nan nan nan nan nan nan nan nan nan nan nan nan nan nan nan nan nan nan nan nan nan nan nan nan nan nan nan nan nan nan nan nan nan nan nan nan nan nan nan nan nan nan nan nan nan nan
nan nan nan nan nan nan nan nan nan nan nan nan nan nan nan nan nan nan nan nan nan nan nan nan nan nan nan nan nan nan nan nan nan nan nan nan nan nan nan nan nan nan nan nan nan nan nan nan nan nan nan nan nan nan nan nan nan nan nan nan nan nan nan nan nan nan nan nan nan nan nan nan nan nan nan nan nan nan nan nan nan nan nan nan nan nan
nan nan nan nan nan nan nan nan nan nan nan nan nan nan nan nan nan nan nan nan nan nan nan nan nan nan nan nan nan nan nan nan nan nan nan nan nan nan nan nan nan nan nan nan nan nan nan nan nan nan nan nan nan nan nan nan nan nan nan nan nan nan nan nan nan nan nan nan nan nan nan nan nan nan nan nan nan nan nan nan nan nan nan nan nan nan
nan nan nan nan nan nan nan nan nan nan nan nan nan nan nan nan nan nan nan nan nan nan nan nan nan nan nan nan nan nan nan nan nan nan nan nan nan nan nan nan nan nan nan nan nan nan nan nan nan nan nan nan nan nan nan nan nan nan nan nan nan nan nan nan nan nan nan nan nan nan nan nan nan nan nan nan nan nan nan nan nan nan nan nan nan nan
nan nan nan nan nan nan nan nan nan nan nan nan nan nan nan nan nan nan nan nan nan nan nan nan nan nan nan nan nan nan nan nan nan nan nan nan nan nan nan nan nan nan nan nan nan nan nan nan nan nan nan nan nan nan nan nan nan nan nan nan nan nan nan nan nan nan nan nan nan nan nan nan nan nan nan nan nan nan nan nan nan nan nan nan nan nan
nan nan nan nan nan nan nan nan nan nan nan nan nan nan nan nan nan nan nan nan nan nan nan nan nan nan nan nan nan nan nan nan nan nan nan nan nan nan nan nan nan nan nan nan nan nan nan nan nan nan nan nan nan nan nan nan nan nan nan nan nan nan nan 0 0 nan nan nan nan nan nan nan nan nan nan nan nan nan nan nan nan nan nan nan nan nan
nan nan nan nan nan nan nan nan nan nan nan nan nan nan nan nan nan nan nan nan nan nan nan nan nan nan nan nan nan nan 0 nan nan nan 0 nan nan nan nan nan nan nan nan nan nan nan nan nan nan nan nan nan nan nan nan nan nan nan nan nan nan nan nan 0 0 nan nan nan nan nan nan nan nan nan nan nan nan nan nan nan nan nan nan nan nan nan
nan nan nan nan nan nan nan nan nan nan nan nan nan nan nan nan nan nan nan nan nan nan nan nan nan nan nan nan 0 0 1 2 0 0 0 nan nan nan nan nan nan nan nan nan nan nan nan nan nan nan nan nan nan nan nan nan nan nan nan nan nan nan nan nan nan nan nan nan nan nan nan nan nan nan nan nan nan nan nan nan nan nan nan nan nan nan
nan nan nan nan nan nan nan nan nan nan nan nan nan nan nan nan nan nan nan nan nan nan nan nan nan nan nan nan 0 0 1 2 1 1 0 0 nan nan nan nan nan nan nan nan nan nan nan nan nan nan nan nan nan nan nan nan nan nan nan nan nan nan nan nan nan nan nan nan nan nan nan nan nan nan nan nan nan nan nan nan nan nan nan nan nan nan
nan nan nan nan nan nan nan nan nan nan nan nan nan nan nan nan nan nan nan nan nan nan nan nan nan nan nan nan 0 0 0 0 0 0 nan nan nan nan nan nan nan nan nan nan nan nan nan nan nan nan nan nan nan nan nan nan nan nan nan nan nan nan nan nan nan nan nan nan nan nan nan nan nan nan nan nan nan nan nan nan nan nan nan nan nan nan
nan nan nan nan nan nan nan nan nan nan nan nan nan nan nan nan nan nan nan nan nan nan nan nan nan nan nan nan 0 0 0 nan nan nan nan nan nan nan nan nan nan nan nan nan nan nan nan nan nan nan nan nan nan nan nan nan nan nan nan nan nan nan nan nan nan nan nan nan nan nan nan nan nan nan nan nan nan nan nan nan nan nan nan nan nan nan
nan nan nan nan nan nan nan nan nan nan nan nan nan nan nan nan nan nan nan nan nan nan nan nan nan nan nan nan nan nan 0 0 nan nan nan nan nan nan nan nan nan nan nan nan nan nan nan nan nan nan nan nan nan nan nan nan nan nan nan nan nan nan nan nan nan nan nan nan nan nan nan nan nan nan nan nan nan nan nan nan nan nan nan nan nan nan
nan nan nan nan nan nan nan nan nan nan nan nan nan nan nan nan nan nan nan nan nan nan nan nan nan nan nan nan nan nan nan 0 nan nan nan nan nan nan nan nan nan nan nan nan nan nan nan nan nan nan nan nan nan nan nan nan nan nan nan nan nan nan nan nan nan nan nan nan nan nan nan nan nan nan nan nan nan nan nan nan nan nan nan nan nan nan
nan nan nan nan nan nan nan nan nan nan nan nan nan nan 0 0 nan nan nan nan nan nan nan nan nan nan nan nan 0 0 0 nan nan nan nan nan nan nan nan nan nan nan nan nan nan nan nan nan nan nan nan nan nan nan nan nan nan nan nan nan nan nan nan nan nan nan nan nan nan nan nan nan nan nan nan nan nan nan nan nan nan nan nan nan nan nan
nan nan nan nan nan nan nan nan nan nan 0 0 1 1 1 0 nan nan nan nan nan nan nan nan nan nan nan 0 0 0 0 nan nan nan 0 nan nan nan nan nan nan nan nan nan nan nan nan nan nan nan nan nan nan nan nan nan nan nan nan nan nan nan nan nan nan nan nan nan nan nan 0 nan nan nan nan nan nan nan nan nan nan nan nan nan nan nan
nan nan nan nan nan nan nan 0 0 0 0 0 0 0 0 0 0 0 0 0 0 nan nan nan nan nan nan 0 0 0 0 nan 0 0 0 nan nan nan nan nan nan nan nan nan nan nan nan nan nan nan 0 1 0 0 nan nan nan nan nan nan nan nan nan nan nan nan nan nan 0 0 1 1 0 0 nan nan nan nan nan nan nan nan nan nan nan nan
CIN
nan -0 nan nan nan nan nan nan nan nan nan -0 -0 -0 -0 -0 -0 -0 -0 nan nan nan nan -0 -0 -0 nan nan nan nan nan nan nan nan nan nan nan nan nan nan nan nan nan nan nan nan nan nan nan nan nan nan nan nan nan nan nan nan nan nan nan nan nan nan nan nan nan nan nan nan nan nan nan nan nan nan nan nan nan nan nan nan -1 -0 -0 -0
nan nan nan nan nan nan nan nan nan nan nan nan -0 -0 -0 -0 -0 -0 -0 -0 -0 -0 nan -0 -0 -0 -0 nan nan nan nan nan nan nan nan nan nan nan nan nan nan nan nan nan nan nan nan nan nan nan nan nan nan nan nan nan nan nan nan nan nan nan nan nan nan nan nan nan nan nan nan nan nan nan nan nan nan nan nan nan nan -1 -0 -0 -0 -0
nan nan -0 nan nan nan nan nan nan nan nan nan -0 -0 -0 -0 -0 -0 -0 -0 -0 -0 nan -0 -0 -0 -0 -0 nan nan nan nan nan nan nan nan nan nan nan nan nan nan nan nan nan nan nan nan nan nan nan nan nan nan nan nan nan nan nan nan nan nan nan nan nan nan nan nan nan nan nan nan nan nan nan nan nan nan -1 -0 -0 -0 -0 -0 -0 -0
nan nan -0 -0 -0 nan nan nan nan nan nan -0 -0 -0 -0 -0 -0 -0 -0 -0 -0 -0 -0 nan nan -0 -0 -0 nan nan nan nan nan nan nan nan nan nan nan nan nan nan nan nan nan nan nan nan nan nan nan nan nan nan nan nan nan nan nan nan nan nan nan nan nan nan nan nan nan nan nan nan nan nan nan nan -1 -1 -0 -0 -0 -0 -0 -0 -0 -0
nan nan nan -0 -0 -0 -0 -0 nan nan -0 -0 -0 -0 -0 -0 -0 -0 -0 -0 -0 -0 -0 -0 -0 -0 -0 -0 nan nan nan nan nan nan nan nan nan nan nan nan nan nan nan nan nan nan nan nan nan nan nan nan nan nan nan nan nan nan nan nan nan nan nan nan nan nan nan nan nan nan nan nan nan nan nan nan -0 -0 -0 -0 -0 -0 -0 -0 -0 -0
-0 -0 -0 -0 -0 -0 -0 -0 -0 -0 -0 -0 -0 -0 nan nan nan nan -0 nan nan -0 -0 -0 -0 -0 -0 -0 -0 -0 nan nan nan nan nan nan nan nan nan nan nan nan nan nan nan nan nan nan nan nan nan nan nan nan nan nan nan nan nan nan nan nan nan nan nan nan nan nan nan nan nan nan nan nan nan nan -0 -0 -0 -0 -0 -0 -0 -0 -0 -0
nan -0 -0 -0 -0 -0 -0 -0 -0 -0 -0 -0 -0 -0 nan -0 -0 -0 nan nan nan nan -0 -0 -0 nan -0 -0 -0 -0 -0 nan nan nan nan nan nan nan nan nan nan nan nan nan nan nan nan nan nan nan nan nan nan nan nan nan nan nan nan nan nan nan nan nan nan nan nan nan nan nan nan nan nan nan nan nan -0 -0 -0 -0 -0 -0 -0 -0 -0 -0
nan nan -0 nan nan nan -0 -0 -0 -0 -0 nan nan nan -0 nan -0 -0 -0 nan nan nan nan nan nan nan nan nan -0 -0 -0 -0 -0 -0 -0 -0 -0 -0 -0 nan nan nan nan nan nan nan nan nan nan nan nan nan nan nan nan nan nan nan nan nan nan nan nan nan nan nan nan nan nan nan nan nan nan nan nan nan nan nan -0 -0 -0 -0 -0 -0 -0 -0
nan nan nan -0 -0 nan nan -0 -0 -0 -0 nan nan nan -0 -0 -0 -0 nan nan nan nan nan nan nan nan -0 -0 -0 -0 -0 -0 -0 -0 -0 -0 -0 -0 -0 -0 -0 -0 -0 -0 -0 -0 -0 -0 -0 nan nan nan nan nan nan nan nan nan nan nan nan nan nan nan nan nan nan nan nan nan nan -0 -0 -0 -0 -0 -0 -0 -0 -0 -0 -0 -0 -0 -0 -0
-0 -0 -0 -0 -0 -0 -0 nan -0 -0 -0 -0 nan nan -0 -0 -0 -0 nan -0 -0 -0 -0 nan nan nan nan nan -0 -0 -0 -0 -0 -0 -0 nan -0 -0 -0 -0 -0 -0 -0 -0 -0 -0 -0 -0 -0 -0 -0 -0 -0 -0 -0 nan nan nan nan nan nan nan nan nan nan nan nan nan nan nan -0 -0 -0 -0 -0 -0 -0 -0 -0 -0 -0 -0 -0 -0 -0 -0
-0 -0 -0 -0 -0 -0 -0 -0 -0 -0 -0 nan nan nan nan -0 -0 -0 nan -0 -0 -0 -0 -0 -0 nan -0 -0 -0 -0 -0 -0 -0 -0 -0 -0 -0 -0 -0 -0 -0 -0 -0 -0 -0 -0 -0 -0 -0 -0 -0 -0 -0 -0 -0 -0 -0 -0 -0 nan nan nan nan nan nan nan -0 -0 -0 -0 -0 -0 -0 -0 -0 -0 -0 -0 -0 -0 -0 -0 -0 -0 -0 -0
-0 -0 -0 -0 -0 -0 -0 nan -0 -0 -0 nan nan nan -0 nan -0 -0 nan -0 -0 -0 -0 -0 -0 -0 -0 -0 -0 -0 -0 -0 nan nan -0 -0 -0 -0 -0 -0 -0 -0 -0 -0 -0 -0 -0 -0 -0 -0 -0 -0 -0 -0 -0 -0 -0 -0 -0 -0 -0 -0 -0 -0 -0 -0 -0 -0 -0 -0 -0 -0 -0 -0 -0 -0 -0 -0 -0 -0 -0 -0 -0 -0 -0 -0
-0 -0 -0 -0 -0 -0 -0 nan -0 -0 -0 nan -0 -0 nan nan nan nan -0 -0 -0 -0 -0 -0 -0 -0 -0 -0 -0 -0 -0 -0 -0 -0 -0 -0 -0 -0 -0 -0 -0 nan -0 -0 -0 -0 -0 -0 -0 -0 -0 -0 -0 -0 -0 -0 -0 -0 -0 -0 -0 -0 -0 -0 -0 -0 -0 -0 -0 -0 -0 -0 -0 -0 -0 -0 -0 -0 -0 -0 -0 -0 -0 -0 -0 -0
nan -0 -0 -0 -0 -0 -0 -0 -0 -0 -0 -0 -0 -0 -0 -0 nan nan -0 -0 -0 -0 -0 -0 -0 -0 -0 -0 -0 -0 -0 -0 -0 -0 -0 -0 -0 -0 -0 -0 -0 -0 -0 -0 -0 -0 -0 -0 -0 -0 -0 -0 -0 -0 -0 -0 -0 -0 -0 -0 -0 -0 -0 -0 -0 -0 -0 -0 -0 -0 -0 -0 -0 -0 -0 -0 -0 -0 -0 -0 -0 -0 -0 -0 -0 -0
nan -0 nan -0 -0 -0 -0 -0 -0 -0 -0 -0 -0 -0 -0 -0 -0 -0 -0 -0 -0 -0 -0 -0 -0 -0 -0 -0 -0 -0 -0 -0 -0 -0 -0 -0 -0 -0 -0 -0 -0 -0 -0 -0 -0 -0 -0 -0 -0 -0 -0 -0 -0 -0 -0 -0 -0 -0 -0 -0 -0 -0 -0 -0 -0 -0 -0 -0 -0 -0 -0 -0 -0 -0 -0 -0 -0 -0 -0 -0 -0 -0 -0 -0 -0 -0
-0 -0 nan -0 -0 -0 -0 -0 -0 -0 -0 -0 -0 -0 -0 -0 -0 -0 -0 -0 -0 -0 -0 -0 -0 -0 -0 -0 -0 -0 -0 -0 -0 -0 -0 -0 -0 -0 -0 -0 -0 -0 -0 -0 -0 -0 -0 -0 -0 -0 -0 -0 -0 -0 -0 -0 -0 -0 -0 -0 -0 -0 -0 -0 -0 -0 -0 -0 -0 -0 -0 -0 -0 -0 -0 -0 -0 -0 -0 -0 -0 -0 -0 -0 -0 -0
-0 -0 -0 -0 -0 -0 -0 -0 -0 -0 -0 -0 -0 -0 -0 -0 -0 -0 -0 -0 -0 -0 nan nan nan nan -0 -0 -0 -0 -0 -0 -0 -0 -0 -0 -0 -0 -0 -0 -0 -0 -0 -0 -0 -0 -0 -0 -0 -0 -0 -0 -0 -0 -0 -0 -0 -0 -0 -0 -0 -0 -0 -0 -0 -0 -0 -0 -0 -0 -0 -0 -0 -0 -0 -0 -0 -0 -0 -0 -0 -0 -0 -0 -0 -0
-0 -0 -0 -0 -0 -0 -0 -0 -0 -0 -0 -0 -0 -0 -0 -0 -0 -0 -0 nan nan -0 -0 nan nan -0 -0 -0 -0 -0 -0 -0 -0 -0 -0 -0 -0 -0 -0 -0 -0 -0 -0 -0 -0 -0 -0 -0 -0 -0 -0 -0 -0 -0 -0 -0 -0 -0 -0 -0 -0 -0 -0 -0 -0 -0 -0 -0 -0 -0 -0 -0 -0 -0 -0 -0 -0 -0 -0 -0 -0 -0 -0 -0 -0 -0
-0 -0 -0 -0 -0 -0 -0 -0 -0 -0 -0 -0 -0 -0 -0 -0 -0 -0 -0 -0 -0 -0 -0 -0 -0 -0 -0 -0 -0 -0 -0 -0 -0 -0 -0 -0 -0 -0 -0 -0 -0 -0 -0 -0 -0 -0 -0 -0 -0 -0 -0 -0 -0 -0 -0 -0 -0 -0 -0 -0 -0 -0 -0 -0 -0 -0 -0 -0 -0 -0 -0 -0 -0 -0 -0 -0 -0 -0 -0 -0 -0 -0 -0 -0 -0 -0
-0 -0 -0 -0 -0 -0 -0 -0 -0 -0 -0 -0 -0 -0 -0 -0 -0 -0 -0 -0 -0 -0 -1 -0 -0 -0 -0 -0 -0 -0 -0 -0 -0 -0 -0 -0 -0 -0 -0 -0 -0 -0 -0 -0 -0 -0 -0 -0 -0 -0 -0 -0 -0 -0 -0 -0 -0 -0 -0 -0 -0 -0 -0 -0 -0 -0 -0 -0 -0 -0 -0 -0 -0 -0 -0 -0 -0 -0 -0 -0 -0 -0 -0 -0 -0 -0
-0 -0 -0 -0 -0 -0 -0 -0 -0 -0 -0 -0 -0 -0 -0 -0 -0 -0 -0 -0 -0 -0 -0 -0 -0 -0 -0 -0 -0 -0 -0 -0 -0 -0 -0 -0 -0 -0 -0 -0 -0 -0 -0 -0 -0 -0 -0 -0 -0 -0 -0 -0 -0 -0 -0 -0 -0 -0 -0 -0 -0 -0 -0 -0 -0 -0 -0 -0 -0 -0 -0 -0 -0 -0 -0 -0 -0 -0 -0 -0 -0 -0 -0 -0 -0 -0
-0 -0 -0 -0 -0 nan nan -0 -0 -0 -0 -0 -0 -0 -0 -0 -0 -0 -0 -0 -0 -0 -0 -0 -0 -0 -0 -0 -0 -0 nan -0 -0 -0 -0 -0 -0 -0 -0 -0 -0 -0 -0 -0 -0 -0 -0 -0 -0 -0 -0 -0 -0 -0 -0 -0 -0 -0 -0 -0 -0 -0 -0 -0 -0 -0 -0 -0 -0 -0 -0 -0 -0 -0 -0 -0 -0 -0 -0 -0 -0 -0 -0 -0 -0 -0
-0 -0 -0 -0 -0 -0 -0 -0 -0 -0 -0 -0 -0 -0 -0 -0 -0 -0 -0 -0 -0 nan nan -0 -0 -0 -0 -0 -0 -0 nan nan nan nan -0 -0 -0 -0 -0 -0 -0 -0 -0 -0 -0 -0 -0 -0 -0 -0 -0 -0 -0 -0 -0 -0 -0 -0 -0 -0 -0 -0 -0 -0 -0 -0 -0 -0 -0 -0 -0 -0 -0 -0 -0 -0 -0 -0 -0 -0 -0 -0 -0 -0 -0 -0
-0 -0 -0 -0 -0 -0 -0 -0 -0 -0 -0 -0 -0 -0 -0 -0 -0 -0 -0 -0 -0 nan nan -0 -0 -0 -0 -0 -0 -0 nan nan nan nan nan -0 -0 -0 -0 -0 -0 -0 -0 -0 -0 -0 -0 -0 -0 -0 -0 -0 -0 -0 -0 -0 -0 -0 -0 -0 -0 -0 -0 -0 -0 -0 -0 -0 -0 -0 -0 -0 -0 -0 -0 -0 -0 -0 -0 -0 -0 -0 -0 -0 -0 -0
-0 -0 -0 -0 -0 -0 -0 -0 -0 -0 -0 -0 -0 -0 -0 -0 -0 -0 nan nan nan nan -0 -0 -0 -0 -0 -0 -0 -0 nan nan nan nan nan nan -0 -0 -0 -0 -0 -0 -0 -0 -0 -0 -0 -0 -0 -0 -0 -0 -0 -0 -0 -0 -0 -0 -0 -0 -0 -0 -0 -0 -0 -0 -0 -0 -0 -0 -0 -0 -0 -0 -0 -0 -0 -0 -0 -0 -0 -0 -0 -0 -0 -0
-0 -0 -0 -0 -0 -0 -0 -0 -0 -0 -0 -0 -0 -0 -0 nan nan nan nan -0 -0 -0 -0 -0 -0 -0 -0 -0 -0 -0 nan nan nan nan nan nan -0 -0 -0 -0 -0 -0 -0 -0 -0 -0 -0 -0 -0 -0 -0 -0 -0 -0 -0 -0 -0 -0 -0 -0 -0 -0 -0 -0 -0 -0 -0 -0 -0 -0 -0 -0 -0 -0 -0 -0 -0 -0 -0 -0 -0 -0 -0 -0 -0 -0
-0 -0 -0 -0 -0 -0 -0 -0 -0 -0 -0 nan nan nan nan -0 -0 -0 -0 -0 -0 -0 -0 -0 -0 -0 -0 -0 -0 -0 -0 nan nan nan nan nan nan nan -0 nan nan nan -0 -0 -0 -0 -0 -0 -0 -0 -0 nan -0 -0 -0 -0 -0 -0 -0 -0 -0 -0 -0 -0 -0 -0 -0 -0 -0 -0 -0 -0 -0 -0 -0 -0 -0 -0 -0 -0 -0 -0 -0 -0 -0 -0
-0 -0 -0 -0 -0 -0 -0 -0 -0 -0 -0 -0 nan nan nan nan -0 -0 -0 -0 -0 -0 -0 -0 -0 -0 -0 -0 -0 -0 -0 nan nan nan nan nan nan nan -0 nan nan nan -0 -0 -0 -0 -0 -0 -0 nan nan nan nan nan -0 -0 -0 -0 -0 -0 -0 -0 -0 -0 -0 -0 -0 -0 -0 -0 -0 -0 -0 -0 -0 -0 -0 -0 -0 -0 -0 -0 -0 -0 -0 -0
-0 -0 -0 -0 -0 -0 -0 -0 -0 -0 -0 -0 -0 -0 nan nan -0 -0 -0 -0 -0 -0 -0 -0 -0 -0 -0 -0 nan nan nan nan nan nan nan nan nan nan -0 -0 -0 nan -0 -0 -0 -0 nan nan nan nan nan nan nan nan nan nan nan -0 -0 -0 -0 -0 -0 -0 -0 -0 -0 -0 -0 -0 -0 -0 -0 -0 -0 -0 -0 -0 -0 -0 -0 -0 -0 -0 -0 -0
nan nan -0 -0 -0 -0 -0 -0 -0 -0 -0 -0 -0 -0 nan -0 -0 -0 nan -0 -0 -0 -0 nan nan nan nan nan nan nan nan nan nan nan nan nan nan nan -0 -0 -0 nan -0 nan nan nan nan nan nan nan nan nan nan nan nan nan nan nan -0 -0 -0 -0 -0 -0 -0 -0 -0 -0 -0 -0 -0 -0 -0 -0 -0 -0 -0 -0 -0 -0 -0 -0 -0 -0 -0 -0
nan nan nan nan nan nan -0 -0 -0 -0 -0 -0 -0 -0 nan -0 -0 -0 nan nan nan -0 -0 nan nan nan nan nan -0 -0 -0 nan nan nan nan nan nan nan -0 -0 -0 -0 nan nan nan nan nan nan nan -0 nan nan nan nan nan nan nan nan nan -0 -0 -0 -0 -0 -0 -0 -0 -0 -0 -0 -0 -0 -0 -0 -0 -0 -0 -0 -0 -0 -0 -0 -0 -0 -0 -0
nan nan nan nan nan nan nan nan nan nan nan nan nan nan nan nan nan nan nan nan nan nan nan nan nan nan nan nan nan nan nan nan nan nan nan nan -0 -0 -0 nan nan nan nan nan nan nan nan nan nan -0 -0 nan nan nan nan nan nan nan nan -0 -0 -0 nan -0 -0 -0 -0 -0 nan nan nan nan nan nan nan nan nan nan nan nan nan nan -0 -0 -0 -0
nan nan nan nan nan nan nan nan nan nan nan nan nan nan nan nan nan nan nan nan nan nan nan nan nan nan nan nan nan nan nan nan nan nan nan nan nan nan -0 nan nan nan nan nan nan nan nan -0 -0 -0 -0 nan nan nan nan nan nan nan nan nan nan nan nan -0 -0 -0 nan nan nan nan nan nan nan nan nan nan nan nan nan nan nan nan -0 -0 -0 -0
nan nan nan nan nan nan nan nan nan nan nan nan nan nan nan nan nan nan nan nan nan nan nan nan nan nan nan nan nan nan nan -0 -0 -0 nan nan nan nan -0 nan nan nan nan nan nan nan nan nan nan nan nan nan nan nan nan nan nan nan nan nan nan nan nan nan nan nan nan nan nan nan nan nan nan nan nan nan nan nan nan nan nan nan nan -0 -0 -0
nan nan nan nan nan nan nan nan nan nan nan nan nan nan nan nan nan nan nan nan nan nan nan nan nan nan nan nan nan nan nan nan -0 -0 nan nan nan nan nan -0 -0 nan nan nan nan nan nan nan nan nan nan nan -0 -0 nan nan nan nan nan nan nan nan nan nan nan nan nan nan nan nan nan nan nan nan nan nan nan nan nan nan nan nan nan nan nan nan
nan nan nan nan nan nan nan nan nan nan nan nan nan nan nan nan nan nan nan nan nan nan nan nan nan nan nan nan nan nan nan nan -0 -0 nan nan nan nan nan nan nan nan nan nan nan nan nan nan nan nan nan nan nan nan nan nan nan nan nan nan nan nan nan nan nan nan nan nan nan nan nan nan nan nan nan nan nan nan nan nan nan nan nan nan nan nan
nan nan nan nan nan nan nan nan nan nan nan nan nan nan nan nan nan nan nan nan nan nan nan nan nan nan nan nan nan nan nan nan nan nan nan nan nan nan nan nan nan nan nan nan nan nan nan nan nan nan nan nan nan nan nan nan nan nan nan nan nan nan nan nan nan nan nan nan nan nan nan nan nan nan nan nan nan nan nan nan nan nan nan nan nan nan
nan nan nan nan nan nan nan nan nan nan nan nan nan nan nan nan nan nan nan nan nan nan nan nan nan nan nan nan nan nan nan nan nan nan nan nan nan nan nan nan nan nan nan nan nan nan nan nan nan nan nan nan nan nan nan nan nan nan nan nan nan nan nan nan nan nan nan nan nan nan nan nan nan nan nan nan nan nan nan nan nan nan nan nan nan nan
nan nan nan nan nan nan nan nan nan nan nan nan nan nan nan nan nan nan nan nan nan nan nan nan nan nan nan nan nan nan nan nan nan nan nan nan nan nan nan nan nan nan nan nan nan nan nan nan nan nan nan nan nan nan nan nan nan nan nan nan nan nan nan nan nan nan nan nan nan nan nan nan nan nan nan nan nan nan nan nan nan nan nan nan nan nan
nan nan nan nan nan nan nan nan nan nan nan nan nan nan nan nan nan nan nan nan nan nan nan nan nan nan nan nan nan nan nan nan nan nan nan nan nan nan nan nan nan nan nan nan nan nan nan nan nan nan nan nan nan nan nan nan nan nan nan nan nan nan nan nan nan nan nan nan nan nan nan nan nan nan nan nan nan nan nan nan nan nan nan nan nan nan
nan nan nan nan nan nan nan nan nan nan nan nan nan nan nan nan nan nan nan nan nan nan nan nan nan nan nan nan nan nan nan nan nan nan nan nan nan nan nan nan nan nan nan nan nan nan nan nan nan nan nan nan nan nan nan nan nan nan nan nan nan nan nan -0 -0 nan nan nan nan nan nan nan nan nan nan nan nan nan nan nan nan nan nan nan nan nan
nan nan nan nan nan nan nan nan nan nan nan nan nan nan nan nan nan nan nan nan nan nan nan nan nan nan nan nan nan nan -0 nan nan nan -0 nan nan nan nan nan nan nan nan nan nan nan nan nan nan nan nan nan nan nan nan nan nan nan nan nan nan nan nan -0 -0 nan nan nan nan nan nan nan nan nan nan nan nan nan nan nan nan nan nan nan nan nan
nan nan nan nan nan nan nan nan nan nan nan nan nan nan nan nan nan nan nan nan nan nan nan nan nan nan nan nan -0 -0 -0 -0 -0 -0 -0 nan nan nan nan nan nan nan nan nan nan nan nan nan nan nan nan nan nan nan nan nan nan nan nan nan nan nan nan nan nan nan nan nan nan nan nan nan nan nan nan nan nan nan nan nan nan nan nan nan nan nan
nan nan nan nan nan nan nan nan nan nan nan nan nan nan nan nan nan nan nan nan nan nan nan nan nan nan nan nan -0 -0 -0 -0 -0 -0 -0 -0 nan nan nan nan nan nan nan nan nan nan nan nan nan nan nan nan nan nan nan nan nan nan nan nan nan nan nan nan nan nan nan nan nan nan nan nan nan nan nan nan nan nan nan nan nan nan nan nan nan nan
nan nan nan nan nan nan nan nan nan nan nan nan nan nan nan nan nan nan nan nan nan nan nan nan nan nan nan nan -0 -0 -0 -0 -0 -0 nan nan nan nan nan nan nan nan nan nan nan nan nan nan nan nan nan nan nan nan nan nan nan nan nan nan nan nan nan nan nan nan nan nan nan nan nan nan nan nan nan nan nan nan nan nan nan nan nan nan nan nan
nan nan nan nan nan nan nan nan nan nan nan nan nan nan nan nan nan nan nan nan nan nan nan nan nan nan nan nan -0 -0 -0 nan nan nan nan nan nan nan nan nan nan nan nan nan nan nan nan nan nan nan nan nan nan nan nan nan nan nan nan nan nan nan nan nan nan nan nan nan nan nan nan nan nan nan nan nan nan nan nan nan nan nan nan nan nan nan
nan nan nan nan nan nan nan nan nan nan nan nan nan nan nan nan nan nan nan nan nan nan nan nan nan nan nan nan nan nan -0 -0 nan nan nan nan nan nan nan nan nan nan nan nan nan nan nan nan nan nan nan nan nan nan nan nan nan nan nan nan nan nan nan nan nan nan nan nan nan nan nan nan nan nan nan nan nan nan nan nan nan nan nan nan nan nan
nan nan nan nan nan nan nan nan nan nan nan nan nan nan nan nan nan nan nan nan nan nan nan nan nan nan nan nan nan nan nan -0 nan nan nan nan nan nan nan nan nan nan nan nan nan nan nan nan nan nan nan nan nan nan nan nan nan nan nan nan nan nan nan nan nan nan nan nan nan nan nan nan nan nan nan nan nan nan nan nan nan nan nan nan nan nan
nan nan nan nan nan nan nan nan nan nan nan nan nan nan -0 -0 nan nan nan nan nan nan nan nan nan nan nan nan -0 -0 -0 nan nan nan nan nan nan nan nan nan nan nan nan nan nan nan nan nan nan nan nan nan nan nan nan nan nan nan nan nan nan nan nan nan nan nan nan nan nan nan nan nan nan nan nan nan nan nan nan nan nan nan nan nan nan nan
nan nan nan nan nan nan nan nan nan nan -0 -0 -0 -0 -0 -0 nan nan nan nan nan nan nan nan nan nan nan -0 -0 -0 -0 nan nan nan -0 nan nan nan nan nan nan nan nan nan nan nan nan nan nan nan nan nan nan nan nan nan nan nan nan nan nan nan nan nan nan nan nan nan nan nan -0 nan nan nan nan nan nan nan nan nan nan nan nan nan nan nan
nan nan nan nan nan nan nan -0 -0 -0 -0 -0 -0 -0 -0 -0 -0 -0 -0 -0 -0 nan nan nan nan nan nan -0 -0 -0 -0 nan -0 -0 -0 nan nan nan nan nan nan nan nan nan nan nan nan nan nan nan -0 -0 -0 -0 nan nan nan nan nan nan nan nan nan nan nan nan nan nan -0 -0 -0 -0 -0 -0 nan nan nan nan nan nan nan nan nan nan nan nan
Wind_Speed
2 2 2 2 3 4 4 5 5 6 5 4 3 3 3 3 4 4 4 4 3 3 2 2 2 2 2 2 2 1 2 3 4 5 5 6 6 6 7 7 7 8 8 9 9 9 10 10 10 11 11 11 12 12 12 13 14 14 15 16 17 19 20 20 20 20 19 20 20 21 20 20 21 21 22 23 23 24 24 24 24 24 24 24 24 23
2 3 2 2 3 3 3 3 4 5 5 4 3 3 3 4 3 3 4 4 4 4 3 3 3 3 4 3 3 2 0 2 4 5 5 6 6 7 7 8 8 8 8 9 9 9 10 10 10 11 11 11 12 12 12 12 13 13 14 15 16 17 18 19 19 18 18 18 19 19 19 19 19 20 21 22 22 23 23 23 23 23 23 23 23 23
3 2 2 2 2 3 3 4 4 4 5 5 4 4 4 4 4 3 3 3 4 4 4 3 3 4 4 4 4 4 3 1 2 3 4 5 6 6 7 7 8 8 9 9 9 9 10 10 11 11 11 12 12 12 12 12 12 12 12 13 14 15 16 17 17 16 16 16 16 17 17 18 19 20 21 21 21 21 22 22 22 23 23 23 23 23
3 3 2 2 2 3 3 4 4 5 5 5 5 5 5 5 4 3 3 3 4 4 4 4 4 4 4 4 6 7 6 5 4 2 1 2 3 3 4 5 6 7 8 8 9 9 10 11 11 12 12 12 12 12 13 12 12 12 12 12 12 13 14 15 15 14 14 15 16 16 17 19 20 22 22 22 21 21 20 21 21 22 23 23 23 23
2 2 2 2 2 3 4 5 5 5 5 5 5 5 5 4 4 3 3 4 4 4 4 4 4 4 4 4 6 8 10 10 9 7 6 5 4 3 2 1 1 2 3 4 6 7 8 10 11 12 12 13 14 14 14 14 13 13 12 12 13 14 14 15 15 15 15 16 17 18 19 21 22 23 24 24 23 21 20 19 20 20 21 21 22 22
2 2 2 2 2 3 3 4 4 5 5 5 5 5 4 4 3 3 4 4 4 4 4 4 4 4 4 5 7 10 12 12 12 12 11 10 9 9 8 7 6 5 4 3 2 2 3 5 7 8 10 11 13 13 14 14 13 13 13 13 13 14 15 15 15 15 14 15 16 17 18 20 21 22 24 23 23 22 20 18 17 17 17 18 18 18
2 2 2 2 2 3 3 3 3 4 4 4 4 4 4 4 4 4 4 4 4 3 3 3 4 4 4 5 7 8 10 11 13 13 13 13 13 13 13 13 12 12 11 10 9 7 5 4 2 1 2 4 6 8 9 10 10 9 9 9 9 10 9 9 8 8 9 9 10 11 12 12 13 14 17 18 19 19 17 16 14 13 13 13 13 13
3 2 2 2 3 3 3 3 2 3 3 4 4 4 4 4 4 4 5 4 4 3 3 3 3 4 4 5 5 6 7 8 9 10 11 12 13 14 15 16 16 16 15 15 14 13 12 11 10 9 8 6 4 2 1 1 2 3 4 4 4 5 6 7 8 10 11 12 12 12 12 10 9 9 9 11 12 13 13 12 11 10 9 9 9 9
4 4 3 3 3 3 3 2 2 2 2 3 4 4 5 4 4 4 4 4 4 3 3 3 3 4 4 4 5 5 6 7 7 7 8 8 9 11 14 15 16 17 18 18 17 17 17 16 16 16 15 14 13 12 11 9 8 8 10 12 13 15 16 17 18 18 19 20 20 20 19 17 16 14 13 12 12 12 12 11 10 9 8 7 7 7
4 4 3 3 2 3 3 3 2 2 2 2 3 3 4 5 5 4 4 3 3 3 3 3 3 4 4 4 4 5 6 8 10 11 11 11 11 12 13 13 14 16 19 19 19 19 19 18 18 18 18 18 18 18 17 15 15 14 15 16 18 19 20 21 22 22 23 23 23 23 22 21 19 17 16 15 14 13 12 11 9 8 8 7 6 5
4 4 3 3 2 2 3 2 2 2 2 3 3 2 2 3 4 5 5 4 3 2 2 3 3 3 3 3 4 4 5 6 8 9 11 12 13 13 13 13 14 16 19 19 19 19 19 19 19 19 19 19 19 19 18 18 18 17 17 18 18 19 20 21 22 22 23 23 23 23 23 22 20 19 18 17 16 15 14 12 10 9 8 7 6 6
4 3 2 2 2 2 2 2 2 2 2 3 3 2 2 1 2 3 5 4 4 3 3 3 3 3 3 3 3 3 3 4 4 5 6 7 8 9 9 9 11 13 14 15 16 17 17 18 18 17 17 18 18 18 18 18 18 18 18 19 19 20 20 21 21 22 22 22 23 23 22 21 21 19 19 18 17 16 15 14 13 12 10 9 8 8
3 2 2 2 2 2 2 2 2 2 2 2 2 3 2 1 1 2 3 4 4 4 3 3 3 3 3 3 3 2 2 3 3 3 4 4 5 5 5 6 6 7 7 8 9 10 13 14 14 15 15 16 16 17 17 17 17 18 18 18 19 19 20 20 20 21 21 21 21 21 21 21 20 19 18 17 16 16 15 14 13 12 11 10 10 9
3 2 2 2 2 2 2 2 2 2 2 1 2 2 3 2 2 2 3 3 3 3 3 4 4 3 3 3 3 2 2 2 3 4 4 4 4 4 4 5 5 5 5 5 6 6 8 8 9 10 12 13 14 15 15 16 16 17 17 17 18 18 19 19 19 19 19 20 20 20 19 19 18 17 17 16 15 14 13 12 12 11 10 10 9 8
3 3 3 3 3 2 2 2 2 2 1 2 2 3 3 3 3 3 3 4 3 3 3 4 4 4 3 2 2 2 2 2 3 4 5 4 4 4 4 4 5 5 5 5 5 5 6 5 5 6 7 9 10 11 12 13 15 16 16 17 17 18 18 18 19 19 19 19 19 19 19 18 17 16 15 15 14 13 12 11 10 10 9 8 7 7
3 3 3 3 3 3 3 3 3 2 2 2 3 3 4 3 3 3 4 4 4 3 3 4 4 3 2 2 2 2 2 2 3 4 5 4 4 4 4 4 5 5 5 5 4 4 4 4 4 5 6 8 10 11 11 12 14 15 15 16 16 17 17 17 18 18 18 18 18 18 18 17 17 16 15 14 13 12 11 10 9 8 8 7 6 5
3 3 3 3 3 3 3 3 3 3 3 3 3 3 4 4 3 3 3 4 3 3 2 3 3 3 2 1 1 2 2 1 2 4 5 4 4 4 4 4 4 5 5 4 4 4 4 4 4 4 5 8 10 11 11 12 13 14 14 14 15 15 16 16 16 17 17 17 17 17 17 16 16 15 14 13 12 11 10 9 8 7 7 6 6 5
3 3 3 3 3 3 3 3 3 3 4 4 4 3 3 3 3 3 3 3 3 3 3 2 3 3 3 2 1 0 1 1 2 4 4 4 3 3 4 4 4 4 4 4 4 4 3 3 4 5 6 9 10 11 11 12 12 13 13 14 14 14 14 15 15 15 15 16 15 15 15 15 14 13 13 12 11 10 9 8 8 7 7 6 6 6
3 3 3 3 3 3 3 3 3 3 4 4 4 4 4 3 3 3 3 3 3 3 3 2 2 2 3 3 2 2 1 1 2 4 4 4 3 3 3 3 4 4 4 4 4 4 4 4 5 7 9 10 11 11 11 12 12 12 13 13 13 13 13 14 14 14 14 14 14 14 13 13 12 11 11 10 9 9 8 8 7 7 7 7 6 6
4 3 3 3 4 4 4 3 3 3 4 4 4 4 4 4 3 3 3 3 2 2 2 2 2 2 2 3 3 2 1 1 2 3 4 4 3 3 3 3 3 4 4 3 3 3 4 4 4 6 9 10 10 11 11 11 11 12 12 12 12 12 12 12 13 13 13 13 12 12 11 11 10 10 9 8 8 7 7 7 6 6 6 6 6 6
4 4 3 3 4 4 3 3 4 4 4 4 4 4 4 4 3 3 3 2 2 2 2 2 2 3 3 3 3 2 1 1 2 3 3 3 2 2 2 2 3 4 4 3 3 3 3 3 3 4 6 8 9 10 10 11 11 11 11 11 11 11 11 11 11 11 11 11 11 10 10 9 9 8 8 7 6 6 6 5 5 5 5 4 4 4
4 4 4 4 3 3 3 4 5 5 5 5 4 4 3 4 4 3 3 3 2 2 3 3 3 3 4 4 3 2 2 2 1 2 3 2 2 2 1 1 2 3 4 3 2 3 3 3 3 4 6 8 9 9 9 10 10 10 10 10 10 10 10 10 10 9 9 9 9 9 8 8 7 7 6 6 5 5 4 4 4 3 3 3 3 3
5 5 5 4 4 4 4 5 5 5 5 5 4 3 3 4 4 4 3 3 3 4 4 4 4 4 4 4 3 3 3 2 1 1 2 2 2 2 1 1 2 3 3 2 2 2 3 3 3 4 6 8 9 9 8 8 8 9 9 8 8 8 8 8 8 8 7 7 7 7 7 6 6 6 5 5 4 3 3 3 2 2 2 2 3 3
6 5 5 5 4 4 4 5 5 4 4 3 3 3 3 3 3 3 3 4 4 5 5 5 5 5 4 4 3 3 3 2 2 1 2 2 2 2 1 1 2 3 3 2 2 2 3 3 3 4 5 7 9 9 8 8 7 7 7 7 7 7 6 6 6 6 6 6 6 6 6 5 5 5 4 4 3 3 2 2 1 1 2 2 2 3
5 5 4 4 5 5 5 5 5 5 4 4 4 4 4 5 5 5 5 5 5 5 5 5 5 4 3 3 2 2 2 2 2 1 1 2 2 2 1 1 2 3 2 2 2 2 2 3 3 3 4 6 7 8 8 8 7 6 6 5 5 5 5 5 5 5 5 5 5 5 5 5 5 4 3 3 2 2 2 1 1 2 2 3 3 4
8 7 7 7 8 9 9 9 9 8 7 6 5 5 5 5 6 5 5 4 4 4 5 4 4 3 2 2 2 2 1 2 2 2 1 2 2 2 1 1 2 3 3 2 2 2 2 2 3 3 3 4 5 7 7 7 6 5 4 4 3 3 3 4 4 4 4 4 4 4 4 4 4 3 3 2 2 1 1 2 2 3 3 4 4 5
13 12 12 12 12 12 12 12 12 11 10 9 7 6 5 5 5 5 4 3 3 4 4 4 4 3 2 2 2 2 1 1 2 2 1 2 3 3 2 2 2 3 3 2 2 2 2 2 3 3 3 3 4 5 7 6 5 4 3 2 2 2 2 3 3 4 4 4 4 4 4 3 3 2 2 2 1 2 2 3 3 4 4 5 4 5
15 14 13 13 13 13 13 13 12 12 12 11 10 8 5 4 4 4 4 3 3 3 3 3 3 3 2 2 2 2 1 1 1 1 1 1 2 3 2 2 2 3 3 2 2 2 3 3 2 2 3 3 3 4 6 6 5 4 2 1 0 0 2 3 3 4 4 4 4 3 3 3 2 2 2 2 2 3 3 4 4 5 5 5 4 3
15 15 14 13 13 12 12 12 12 12 11 10 9 6 4 3 3 3 4 3 3 2 2 3 3 3 3 3 2 2 1 1 1 1 1 1 2 2 2 2 2 2 2 2 2 2 2 2 2 2 2 3 3 3 4 5 5 4 2 1 1 1 2 3 4 4 4 4 3 3 3 2 2 2 2 2 3 3 3 4 4 4 4 3 2 2
11 12 12 12 12 11 10 10 10 10 11 10 9 7 5 3 3 3 3 3 2 2 2 3 3 3 3 3 2 2 1 2 1 0 0 1 2 2 2 2 2 2 2 2 1 1 1 1 2 2 2 3 3 3 3 3 3 3 2 0 1 3 4 4 4 4 4 4 4 3 3 2 2 2 2 2 2 2 3 3 4 3 2 2 1 1
8 8 8 9 9 8 8 8 8 9 9 10 9 7 6 5 4 3 3 2 2 2 2 3 3 3 3 2 2 1 2 2 2 2 0 1 2 2 3 3 2 1 0 0 1 1 1 1 1 2 2 2 2 3 3 3 3 2 2 2 3 4 6 6 5 5 5 4 4 4 3 2 2 1 1 1 1 1 2 2 3 3 2 1 2 2
6 6 6 6 6 6 6 6 6 6 7 7 7 6 6 5 5 4 3 2 2 2 3 3 3 3 2 1 1 1 2 2 3 3 2 2 2 2 3 3 2 1 1 1 1 1 1 1 1 1 1 2 2 2 2 2 2 2 2 3 3 4 5 5 5 5 5 5 4 4 3 3 2 2 1 1 1 0 1 2 2 2 2 2 2 3
6 5 5 5 5 5 5 5 5 5 5 5 5 5 5 5 5 5 4 4 3 3 3 3 3 2 2 2 2 2 2 2 3 3 3 2 2 2 2 3 3 2 1 1 2 2 2 2 1 1 1 1 1 2 2 2 2 2 2 2 3 3 4 4 4 4 4 4 4 3 3 3 3 2 2 2 1 1 1 1 2 2 2 2 2 3
6 6 5 5 5 5 5 5 5 5 5 5 5 5 5 5 5 5 5 5 4 4 3 3 2 2 2 2 2 2 2 3 3 4 3 2 2 2 2 3 3 3 2 1 1 2 2 2 2 2 1 1 1 1 1 1 1 2 1 2 2 2 2 2 2 2 2 2 2 2 2 2 2 2 2 1 1 1 1 1 2 3 3 2 2 3
5 5 5 5 5 5 5 5 5 5 5 5 5 5 5 5 5 5 5 5 5 5 5 4 4 3 2 2 2 2 2 3 4 4 3 2 2 2 2 3 3 3 2 2 1 2 2 2 2 2 2 2 1 1 1 1 1 1 1 1 1 1 1 1 1 2 2 2 2 1 1 1 1 1 1 1 1 1 1 2 2 3 3 3 3 3
5 5 5 4 4 4 5 5 5 5 5 5 5 4 4 5 5 5 5 5 5 5 5 5 5 4 4 3 3 3 3 4 4 4 3 2 2 2 2 2 3 3 3 2 2 2 2 2 2 2 2 2 2 2 2 2 2 1 1 1 1 1 1 1 1 1 2 2 2 2 2 2 2 2 1 1 1 0 1 1 2 3 3 4 5 5
5 5 4 4 4 4 4 4 4 4 4 4 4 4 4 4 4 5 5 5 5 5 5 6 6 6 6 5 5 4 4 4 4 4 4 2 2 2 2 2 2 3 2 2 2 2 2 2 2 2 2 2 2 2 2 2 2 2 2 2 2 2 1 1 1 1 1 2 2 2 2 2 2 2 1 1 1 1 1 2 3 3 4 5 5 6
5 4 4 4 4 4 4 4 4 4 4 3 4 4 4 4 5 5 5 5 6 6 5 5 6 7 9 8 8 7 6 6 6 5 4 3 2 2 2 2 2 2 2 2 2 2 2 2 2 2 2 2 2 2 3 3 3 3 3 3 2 2 2 2 2 1 1 2 2 2 2 2 1 1 1 1 2 2 2 3 3 4 4 5 6 7
4 4 4 4 4 4 4 4 3 3 3 3 3 4 4 5 5 5 5 6 6 6 6 6 6 6 8 9 9 9 8 7 7 6 5 4 2 2 2 2 2 2 2 1 1 1 2 2 2 2 2 2 2 2 3 3 3 3 3 3 3 3 3 3 2 2 2 2 2 2 2 2 1 2 2 2 2 2 2 3 3 3 3 4 5 6
4 4 4 4 4 4 4 3 3 3 3 3 4 4 4 4 4 5 5 5 6 6 7 7 6 6 7 7 8 8 8 7 6 6 5 4 3 2 2 2 2 2 2 1 1 1 1 1 1 1 1 2 2 2 2 3 3 3 4 3 3 3 3 3 3 3 2 2 2 2 2 2 2 2 2 2 2 2 2 2 2 2 3 3 3 4
4 4 4 4 4 4 4 3 3 2 3 3 3 3 3 3 4 4 4 5 5 5 5 6 6 6 6 7 7 8 8 7 7 6 5 4 4 3 3 2 2 2 2 2 1 1 1 1 1 0 1 1 2 2 2 3 3 4 4 3 2 2 3 3 3 2 2 2 2 1 1 2 2 2 2 2 2 2 2 2 3 3 3 3 3 3
5 4 4 4 3 3 3 3 3 3 3 3 3 3 3 3 3 3 3 4 4 4 4 4 5 5 6 6 6 7 7 7 7 7 6 5 5 4 4 3 2 2 2 2 2 1 1 1 1 1 1 1 1 2 2 3 3 3 3 2 2 2 3 3 3 2 2 2 2 1 2 2 2 1 2 2 2 2 2 3 3 3 3 3 3 3
5 4 4 3 3 3 3 3 3 3 3 3 3 3 2 2 2 3 3 3 3 3 3 4 4 5 5 5 5 5 6 6 7 7 7 6 6 5 5 4 3 3 2 2 2 2 2 2 2 2 1 1 1 1 2 2 3 2 2 1 1 2 2 2 2 2 2 1 1 1 1 1 1 2 2 2 3 3 3 3 3 4 4 3 3 4
4 4 4 3 3 3 3 3 3 3 3 3 3 3 2 2 3 3 3 3 3 3 3 3 4 4 5 5 5 5 5 5 6 7 7 8 7 7 6 5 5 4 3 2 2 2 2 2 2 2 2 2 1 1 2 2 2 2 2 1 1 1 1 1 2 2 1 1 0 0 1 1 2 2 3 3 3 3 3 3 3 3 3 3 3 4
4 4 3 3 2 3 3 3 3 3 3 3 3 3 2 2 3 3 3 3 3 3 3 3 3 3 4 4 4 4 4 4 5 5 6 7 8 8 7 6 5 5 4 4 3 2 2 2 2 2 2 1 1 1 1 1 2 2 2 1 1 0 1 1 1 1 0 0 0 1 2 2 2 3 3 3 3 3 3 3 3 3 3 3 3 4
4 3 3 3 3 3 3 3 3 3 3 3 3 3 2 2 2 3 3 3 3 3 2 2 2 3 3 3 3 3 3 3 3 4 4 5 5 6 6 6 5 5 4 4 4 4 3 3 2 2 1 1 1 1 1 1 1 1 1 1 1 0 0 1 1 1 1 1 1 2 3 3 3 3 3 3 3 3 3 3 3 3 3 3 3 3
4 4 3 3 3 3 3 3 3 3 3 3 3 2 2 2 2 3 3 3 3 2 2 2 3 3 4 4 3 3 3 3 3 3 3 3 4 4 4 4 4 4 4 4 4 4 4 4 3 2 1 1 1 1 1 1 1 1 1 1 1 0 0 1 1 2 2 2 2 3 3 3 3 3 3 3 3 3 3 3 3 3 3 3 3 3
4 4 3 3 3 3 3 3 3 3 4 3 3 2 2 2 3 3 3 3 3 2 2 3 3 4 4 4 4 4 4 4 3 3 3 3 3 3 3 3 3 3 3 3 3 3 3 3 3 3 2 2 1 1 2 2 1 1 1 1 0 0 0 1 1 1 1 1 2 2 2 3 3 3 4 4 4 4 4 3 3 3 3 3 3 3
4 4 3 3 3 3 3 3 3 4 4 4 3 3 3 3 3 3 3 2 2 2 2 3 3 4 4 4 4 4 4 4 3 3 3 2 2 2 2 2 1 1 2 2 2 3 3 3 3 3 3 3 2 1 1 2 2 1 1 1 1 1 1 1 1 1 1 1 0 0 1 2 3 3 3 4 4 4 4 4 4 3 3 3 3 3
3 3 3 3 3 3 3 3 3 4 4 4 4 3 3 3 3 3 2 2 2 2 3 3 4 4 4 4 4 4 4 3 3 3 3 2 2 2 1 1 1 1 0 1 2 2 2 2 2 3 3 3 3 2 1 2 2 2 1 1 1 1 1 1 1 1 2 2 1 1 2 2 2 3 3 4 4 5 5 4 4 3 3 2 3 3
3 3 3 3 3 3 3 3 3 4 4 4 4 4 3 3 3 3 2 2 3 3 3 3 4 4 4 4 4 4 3 3 3 3 3 2 2 1 1 2 2 2 1 0 1 1 2 2 2 2 3 4 4 4 2 1 2 2 1 1 1 0 1 1 1 2 2 2 2 2 2 3 3 3 3 3 4 4 5 4 4 3 3 3 3 4
Wind_Direction
97 104 90 110 127 139 145 140 139 138 134 123 112 100 85 73 66 58 49 50 57 68 77 84 100 112 113 93 90 125 189 205 211 215 217 220 222 225 227 228 230 230 231 230 229 229 229 229 230 232 233 235 238 240 242 245 247 249 251 251 250 248 246 242 239 236 235 233 230 224 215 207 201 198 197 195 192 189 186 184 183 183 183 184 186 187
104 99 78 78 100 117 118 101 109 122 130 125 119 112 104 94 82 65 52 49 50 51 53 57 65 71 71 55 44 39 76 203 210 213 215 219 221 224 226 228 230 231 232 231 231 231 231 231 231 231 232 233 235 237 240 242 245 248 250 251 250 249 246 243 240 237 234 232 226 218 209 200 194 192 192 191 189 187 185 183 182 181 181 182 183 184
127 115 101 75 80 95 104 88 86 95 110 113 112 107 103 96 87 74 63 57 52 48 44 46 53 60 58 48 41 40 50 102 178 199 209 215 219 222 226 229 231 234 235 236 236 237 237 236 236 236 235 236 237 238 239 241 243 244 246 248 248 247 245 243 240 236 231 225 218 209 199 191 186 184 185 185 186 185 184 182 181 180 180 181 182 183
131 123 119 98 79 79 92 98 94 90 90 95 96 95 93 90 86 78 71 67 62 55 46 45 49 54 55 46 43 44 52 63 74 90 125 178 201 213 222 229 233 236 239 241 242 243 244 244 243 243 243 242 242 242 242 242 242 243 243 243 244 244 243 241 238 232 223 214 206 198 191 185 182 180 179 181 182 184 185 184 182 181 181 182 182 183
118 113 119 112 97 88 89 96 98 97 94 93 91 89 85 85 84 81 74 69 65 61 52 46 46 50 53 49 47 50 54 59 62 65 68 73 79 85 93 122 223 242 247 249 249 250 250 249 249 249 248 247 247 246 245 244 244 243 243 243 242 242 242 240 235 226 214 205 197 191 187 183 180 179 177 178 180 182 185 185 185 184 184 184 184 184
108 97 108 107 104 102 100 99 103 106 104 98 91 86 81 81 81 79 75 70 67 64 57 49 45 46 48 50 52 54 56 58 60 61 62 64 66 67 66 64 60 55 49 37 4 296 269 257 252 251 250 249 248 247 246 245 245 244 244 243 243 243 242 239 232 222 207 200 193 187 183 182 180 178 176 176 177 179 181 183 184 186 187 188 187 186
106 95 95 94 96 98 101 103 111 116 117 110 101 92 83 78 74 72 71 69 69 68 66 57 48 44 43 46 50 53 55 57 58 59 60 62 64 65 65 64 62 59 56 53 49 45 41 39 28 337 279 259 252 248 244 242 240 238 237 236 237 238 236 230 218 202 183 178 171 166 167 169 170 171 171 169 170 170 170 172 175 180 184 187 188 187
119 114 105 101 99 97 95 97 105 115 122 122 118 110 100 87 77 71 68 63 62 63 70 65 57 48 42 40 43 48 53 56 56 56 58 60 63 65 66 66 65 63 62 59 57 54 53 54 54 52 50 47 44 42 67 189 189 181 168 152 140 131 125 117 114 112 111 107 105 104 102 105 109 117 129 136 142 145 147 149 155 162 170 177 181 183
121 122 115 113 114 114 110 102 100 106 117 120 123 121 119 111 100 86 72 60 52 49 59 71 69 61 49 41 39 44 53 57 57 56 56 57 60 64 67 68 67 67 66 64 62 60 58 58 58 58 58 57 58 59 62 70 82 94 102 105 105 105 105 103 101 100 99 96 94 92 89 87 85 85 88 93 101 110 117 124 133 141 150 159 166 172
101 105 105 101 103 107 112 115 115 113 110 108 111 116 122 123 120 111 93 73 54 40 43 62 72 73 63 47 41 43 51 58 60 60 59 58 62 66 68 69 69 69 68 67 65 63 62 62 62 62 62 63 63 64 65 68 74 81 89 94 99 102 104 104 104 103 102 100 98 96 94 91 89 86 83 82 84 88 94 104 114 124 132 139 144 148
83 83 85 82 75 73 83 97 105 110 113 104 97 95 101 119 124 124 120 109 91 64 51 52 61 68 70 57 47 44 49 56 58 58 58 57 60 63 65 66 68 69 69 68 67 66 65 65 65 66 66 67 67 68 69 71 74 78 82 87 92 95 98 100 101 102 102 102 101 100 98 97 94 90 85 81 79 78 80 86 92 99 106 111 111 107
81 77 76 79 78 74 73 78 87 103 121 119 115 110 107 107 118 125 128 127 123 110 91 71 60 56 59 60 56 52 52 60 61 60 55 53 53 54 57 58 60 63 65 67 67 67 67 68 68 69 69 70 70 71 73 74 77 79 82 85 88 90 92 95 97 98 100 101 101 101 101 99 97 94 90 86 82 80 79 79 80 81 85 85 86 84
84 85 89 87 85 85 90 95 104 119 146 147 141 137 136 119 98 101 113 118 120 119 113 98 78 60 50 45 44 50 63 69 70 66 59 50 44 42 46 48 49 50 54 60 62 64 66 68 70 72 73 74 75 76 77 80 82 83 85 87 89 90 92 93 94 96 98 99 100 100 101 100 99 98 95 93 91 89 88 86 85 85 84 84 83 81
100 102 101 97 93 92 98 115 133 149 164 144 119 109 107 98 94 96 103 105 108 111 111 102 92 77 56 37 26 26 54 78 78 70 61 50 40 36 43 50 49 46 47 52 54 56 59 63 68 73 77 79 81 82 85 87 89 91 93 93 94 95 96 96 97 98 99 99 100 102 102 103 104 104 104 105 105 104 103 102 101 98 96 94 92 89
123 126 124 122 121 121 124 140 152 155 137 90 81 84 89 94 103 112 116 116 118 118 110 100 93 83 64 40 17 4 14 72 82 76 68 52 37 30 40 54 55 52 49 52 52 50 49 50 58 68 75 81 87 92 97 99 101 102 102 102 102 103 103 104 104 105 106 107 108 109 110 111 113 114 115 116 117 117 117 116 114 112 109 107 105 103
132 136 140 142 143 144 149 155 153 141 114 100 102 110 116 124 129 132 127 129 133 132 124 113 104 92 63 36 12 2 2 62 81 82 78 60 38 26 33 55 61 58 54 54 51 46 41 45 52 61 71 84 92 97 100 104 106 106 106 107 107 107 108 109 110 111 112 113 114 115 117 118 120 121 122 123 124 124 124 124 123 121 120 119 120 123
134 139 143 144 147 151 155 155 147 137 127 125 126 131 136 141 142 140 136 139 141 143 141 133 126 120 112 82 15 358 359 53 82 86 82 68 43 25 26 53 66 67 60 54 48 43 40 49 56 65 74 84 90 94 96 100 101 103 104 105 106 107 108 109 111 112 113 114 115 117 118 119 121 122 123 124 126 127 129 130 131 132 134 137 142 149
140 144 144 145 147 152 155 154 146 137 135 136 138 139 138 138 140 142 146 150 152 154 155 148 139 137 137 146 141 75 355 69 92 92 84 74 52 28 24 50 67 72 66 54 43 33 31 48 63 76 83 87 90 91 93 94 96 98 99 100 102 104 105 107 108 109 111 112 113 114 115 117 118 120 122 125 128 132 135 138 142 146 150 156 162 169
145 146 145 145 146 149 153 155 151 146 144 146 145 141 135 137 140 146 152 158 161 160 155 147 134 124 125 130 124 110 16 81 98 98 89 81 63 39 26 54 70 74 68 54 38 26 22 37 62 78 86 89 90 90 91 92 92 93 94 96 98 100 102 103 105 106 108 108 109 110 112 113 116 119 122 127 132 137 142 147 152 157 162 168 173 179
139 140 141 139 139 142 150 156 154 152 151 149 145 141 140 142 144 149 158 163 162 156 138 123 108 99 98 103 102 96 43 80 96 96 90 85 72 51 30 59 76 78 69 54 35 22 23 33 53 71 82 85 87 89 90 90 91 91 91 93 94 96 98 100 102 104 105 106 108 109 111 114 117 121 126 131 137 143 149 155 160 166 171 176 182 187
127 126 124 128 134 139 146 149 149 149 149 144 140 138 140 143 148 153 158 154 147 133 110 96 88 87 93 102 100 85 20 48 95 102 94 85 72 52 31 57 77 83 75 58 38 25 29 33 41 58 75 81 84 87 89 89 89 89 89 89 90 92 94 96 98 101 103 105 108 111 114 118 123 127 133 138 144 150 156 162 168 173 179 185 192 198
104 107 107 113 117 122 127 133 137 141 143 142 141 142 145 149 153 156 156 148 135 115 94 83 77 76 82 90 85 63 15 23 76 107 106 96 83 64 27 50 78 85 79 64 45 35 36 35 38 55 74 79 81 83 86 87 88 88 88 87 87 88 90 91 94 98 101 105 110 115 120 124 128 133 138 143 149 155 162 168 174 182 189 197 205 212
74 80 84 84 88 96 109 119 127 134 141 144 146 147 145 151 153 153 150 134 112 95 87 83 79 77 77 81 75 57 28 16 29 89 108 105 102 95 51 66 83 86 80 68 55 46 46 41 39 46 62 70 74 76 80 84 88 91 91 91 91 92 92 94 97 101 105 110 116 122 126 131 135 139 143 149 153 159 166 174 184 195 205 214 224 232
63 68 69 71 76 87 102 115 124 131 134 129 121 114 112 117 116 110 104 98 96 97 99 99 94 88 83 84 78 63 35 12 0 20 105 107 110 110 103 96 96 94 86 70 57 52 55 52 45 42 45 55 59 63 66 71 77 85 92 97 100 101 104 107 111 115 121 125 130 134 136 139 142 145 149 152 157 162 170 183 201 221 234 241 247 251
63 65 68 74 83 91 100 109 115 117 117 110 103 97 93 90 87 85 84 91 99 108 114 111 105 100 97 94 84 65 33 10 356 358 92 103 107 107 100 96 100 102 95 75 57 52 62 63 56 49 43 44 47 49 51 53 58 65 76 87 97 106 115 121 128 134 138 139 142 143 142 144 145 147 150 153 157 165 176 197 223 241 249 254 256 257
74 78 82 88 93 97 100 103 106 108 109 109 110 108 105 101 97 96 97 104 115 124 128 120 113 110 109 108 100 82 46 16 2 5 65 103 112 113 103 91 97 101 100 84 63 54 61 65 60 53 44 38 36 35 36 37 39 43 48 61 77 97 113 126 134 139 139 139 138 137 135 135 137 139 142 150 163 180 200 220 234 244 249 252 254 254
79 84 89 93 96 99 101 103 104 105 106 107 110 113 115 115 111 109 110 122 135 142 139 129 121 116 113 115 107 90 62 34 12 5 22 99 111 114 115 106 104 104 103 90 71 57 56 57 54 48 44 36 29 24 21 21 21 21 21 30 47 78 106 122 127 128 128 126 124 123 124 124 129 135 145 164 188 210 223 232 238 242 245 247 249 249
72 76 82 88 93 97 100 102 103 103 103 105 108 111 115 118 119 122 128 139 148 151 143 131 127 125 125 121 108 91 73 53 25 3 337 85 101 108 117 116 113 110 107 92 70 54 51 47 44 40 40 36 29 22 14 11 8 1 346 329 317 133 127 125 125 125 124 123 123 123 126 131 141 155 175 198 214 225 231 236 239 241 243 244 245 245
60 62 65 70 77 83 89 92 95 95 95 94 93 90 86 96 112 123 132 142 148 148 135 124 121 121 119 109 102 97 96 89 52 341 317 73 90 101 117 120 119 114 110 100 81 61 54 47 38 31 30 31 30 25 14 11 5 355 331 275 222 168 135 129 128 127 126 128 130 133 139 148 163 181 198 213 223 230 235 238 241 243 244 244 246 247
56 54 53 52 55 59 65 71 75 76 75 71 66 58 46 49 70 96 117 133 140 138 123 113 112 112 114 110 110 118 139 136 145 179 317 80 94 110 128 130 127 124 120 120 114 99 80 66 53 42 32 32 30 27 17 14 10 5 357 328 127 116 111 114 117 120 123 125 129 134 141 150 165 183 198 215 229 237 243 247 248 249 246 245 246 249
61 58 54 48 46 46 48 50 53 55 55 53 50 46 41 42 51 68 90 104 113 112 110 110 114 120 129 132 139 145 143 133 137 145 93 86 101 123 142 137 131 121 92 102 121 125 118 97 79 64 50 41 35 28 20 20 17 19 31 64 84 90 94 99 105 110 113 116 120 124 128 133 142 152 159 188 233 258 265 267 265 261 253 252 254 255
69 66 63 57 52 50 48 48 47 47 45 44 42 41 40 40 42 47 53 52 57 74 95 107 117 125 137 133 122 110 101 110 126 134 113 95 99 120 145 135 129 115 21 353 3 51 106 107 99 86 78 61 49 37 27 26 22 25 48 76 84 88 94 99 103 105 106 107 110 111 113 113 113 110 104 91 65 355 316 299 285 276 267 267 266 266
77 74 71 66 62 58 55 53 51 49 47 45 42 40 39 39 41 41 40 35 36 46 71 99 114 119 112 81 67 68 76 95 118 126 116 102 102 122 143 135 131 125 104 21 15 30 67 87 98 102 102 88 73 59 45 38 30 30 48 81 92 98 104 107 109 108 104 103 102 103 104 103 102 99 93 83 71 36 347 325 309 300 291 283 277 274
81 79 76 73 69 65 62 59 56 54 51 47 44 42 41 42 42 42 42 39 36 36 39 59 84 101 104 87 79 78 84 99 116 121 112 100 103 125 142 139 138 137 137 107 70 64 72 86 102 114 113 110 105 96 84 65 47 36 35 73 96 109 119 124 126 124 118 113 110 109 111 113 117 117 112 102 88 48 4 340 327 318 312 304 292 282
83 79 75 73 71 69 66 63 61 58 55 50 45 42 42 44 45 45 45 45 43 41 38 38 41 48 61 78 90 96 98 110 119 118 101 92 98 120 136 140 142 145 148 140 122 104 98 103 114 123 125 128 135 139 132 117 98 73 50 70 101 122 134 150 156 154 152 158 164 169 166 175 178 174 162 139 105 39 6 343 330 320 314 305 295 287
84 78 71 69 69 69 67 64 62 61 58 54 49 45 45 49 51 52 51 53 53 53 50 45 38 32 26 34 56 83 101 112 116 112 96 85 89 107 122 135 145 150 154 151 144 131 117 117 124 134 138 143 150 153 153 149 149 150 149 149 146 145 143 158 173 185 187 193 195 192 188 197 205 202 184 150 117 24 330 312 304 298 293 288 283 279
83 77 69 66 66 68 68 65 63 61 59 58 56 53 54 57 60 61 62 62 62 63 61 56 51 46 41 43 53 67 84 95 99 96 87 79 75 82 99 120 141 154 161 158 153 147 135 133 139 149 158 157 153 150 150 158 170 180 181 175 171 164 151 152 168 200 216 216 207 197 190 196 203 203 184 158 170 221 250 257 260 264 268 269 268 268
81 76 69 64 63 65 68 67 65 63 63 65 65 66 66 67 69 70 70 69 70 70 70 66 62 58 55 58 60 62 65 67 69 69 67 66 70 82 96 115 140 157 169 161 159 158 157 157 160 165 168 157 145 140 145 159 173 182 179 173 171 170 162 160 171 190 215 219 213 203 194 194 200 207 207 211 226 239 246 245 246 250 257 260 260 259
83 79 72 66 62 62 65 65 64 64 67 70 75 78 79 78 77 76 75 74 74 73 74 74 72 68 63 63 63 62 60 57 53 50 44 40 44 67 101 120 135 145 151 156 168 182 189 193 188 178 165 152 144 144 150 164 172 173 167 168 172 178 175 171 174 184 197 205 205 202 197 195 202 218 229 234 243 252 258 261 263 266 270 271 267 262
87 83 77 70 64 62 62 63 63 64 69 76 82 86 88 87 84 82 80 80 81 82 83 83 81 77 71 67 64 60 57 54 49 45 39 28 24 32 63 94 114 126 134 142 171 206 225 233 230 204 166 150 146 149 157 167 171 170 166 172 176 177 173 173 175 179 184 192 202 207 207 209 218 229 237 242 250 257 267 275 279 282 284 284 282 278
94 89 84 78 72 68 68 69 68 68 72 80 83 84 84 90 93 94 91 90 91 93 95 93 89 84 77 70 64 59 55 54 53 49 43 31 29 36 54 68 89 108 125 135 148 176 231 246 239 188 139 138 142 146 154 161 166 172 180 185 174 158 156 165 169 172 176 183 194 207 224 234 241 246 254 260 263 266 269 274 279 282 282 277 277 280
95 92 89 87 85 84 85 85 81 77 76 77 75 72 70 82 94 102 103 101 101 103 107 105 101 94 86 77 68 61 55 55 57 56 51 43 43 52 65 73 84 98 115 125 129 127 116 89 81 91 104 130 145 151 149 151 159 172 190 189 168 149 151 157 158 161 180 183 190 206 233 251 262 271 283 284 282 276 270 270 272 274 276 275 273 272
90 89 88 86 88 92 96 94 90 85 80 75 70 64 54 60 78 93 100 102 103 105 108 108 105 100 95 87 79 71 63 59 58 57 55 49 48 53 64 70 75 84 99 112 113 108 97 87 76 68 63 74 128 146 140 141 150 163 176 174 176 178 178 153 149 156 181 188 196 218 263 291 306 308 304 293 286 279 272 266 264 264 266 272 276 274
91 90 89 88 90 93 94 90 86 83 83 80 76 70 58 57 70 84 93 98 100 102 104 105 102 99 95 93 91 87 80 72 63 57 52 48 45 47 53 58 60 62 64 76 92 103 107 95 79 62 43 33 46 102 123 135 143 150 148 153 185 215 217 116 122 139 167 177 173 71 12 352 335 318 300 287 278 272 267 265 263 262 263 268 271 273
96 97 95 97 99 96 88 81 77 76 77 78 78 75 65 62 72 85 94 99 101 103 105 112 110 102 95 97 98 97 93 85 75 65 56 48 46 45 47 48 48 48 49 50 54 64 83 89 84 73 54 41 48 74 101 123 136 139 133 135 155 239 22 51 60 69 62 38 32 30 27 4 338 313 296 287 282 279 277 276 275 275 273 271 270 270
100 99 97 95 91 87 82 79 78 79 80 80 79 77 73 72 79 89 97 102 104 104 106 113 110 106 104 106 107 106 102 94 85 75 65 55 50 48 47 46 44 41 41 40 39 39 45 57 68 79 84 84 83 81 76 76 101 125 125 124 128 124 73 67 55 41 24 8 8 12 13 354 330 308 296 296 296 295 291 283 278 276 278 277 276 274
105 102 99 96 94 92 92 91 90 90 88 85 83 84 85 88 91 95 101 105 107 109 110 106 102 103 107 112 113 111 108 102 96 88 78 68 61 57 54 54 51 49 47 45 42 41 41 37 33 27 30 60 105 106 92 69 51 48 82 93 113 155 166 101 65 50 31 12 6 4 359 343 322 306 302 303 301 298 291 283 276 272 272 274 276 276
106 105 105 105 105 106 105 106 104 101 97 95 95 98 102 103 102 101 104 108 111 114 112 105 103 103 105 108 110 111 111 109 105 99 90 80 73 66 62 61 63 66 70 69 66 61 56 43 29 14 0 353 8 87 106 97 80 57 54 61 68 86 94 72 60 47 20 15 15 10 348 327 315 310 310 307 302 296 293 290 283 274 265 267 271 274
98 103 107 111 111 111 111 114 112 111 108 109 109 107 102 98 97 98 101 104 107 106 103 103 104 105 105 106 106 107 109 108 105 100 94 84 76 69 65 59 61 75 98 106 105 100 92 77 55 32 11 358 356 23 96 101 94 80 67 63 49 29 6 14 11 3 341 348 12 2 285 294 300 304 306 301 297 294 295 293 288 280 270 266 268 272
86 90 96 103 107 110 113 115 116 116 115 113 109 104 98 94 92 93 96 96 96 97 99 103 105 107 108 108 109 109 108 107 105 101 97 87 75 62 54 41 26 17 76 132 136 135 133 123 102 72 41 18 7 7 74 103 110 112 114 100 71 25 347 334 332 331 322 314 294 258 258 272 278 283 286 288 289 290 291 290 288 286 281 276 274 274
86 85 87 92 98 104 110 114 116 116 115 112 110 108 107 104 102 98 94 91 92 95 100 103 106 108 111 113 113 113 113 113 110 106 100 91 81 63 47 32 13 351 330 294 167 164 166 155 136 111 79 46 23 11 18 86 124 143 158 143 127 82 327 312 310 312 309 303 294 281 267 265 265 268 273 281 286 289 291 292 293 295 298 296 289 284